Location: Unspecified
(44.4377°N, 88.0525°W)
Time: 08:53:42
(UTC-06:00)

ISS - Visible Passes

Search period start: 18 December 2017 00:00
Search period end: 28 December 2017 00:00
Orbit: 402 x 406 km, 51.6° (Epoch: 19 December)

Date Brightness Start Highest point End Pass type
(mag) Time Alt. Az. Time Alt. Az. Time Alt. Az.
19 Dec -0.5 16:50:41 10° W 16:52:44 16° SW 16:54:46 10° S visible
25 Dec -1.1 06:45:51 10° SSW 06:48:32 24° SE 06:51:15 10° E visible
26 Dec -0.6 05:54:42 10° SSE 05:56:24 13° SE 05:58:05 10° E visible
27 Dec -2.9 06:36:55 10° SW 06:40:06 53° SE 06:43:20 10° ENE visible
